Regional Weather Roundup
Issued by NWS

Home | Current Version | Previous Version | Graphics & Text | Print | Product List | Glossary Off
Versions: 1 2 3 4 5 6 7 8 9 10 11 12 13 14 15 16 17 18 19 20 21 22 23 24 25 26 27 28 29 30 31 32 33 34 35 36 37 38 39 40 41 42 43 44 45 46 47 48 49 50

000
ASUS45 KTFX 191004
RWRMT
MONTANA HOURLY WEATHER ROUNDUP
NATIONAL WEATHER SERVICE GREAT FALLS MT
304 AM MST FRI DEC 19 2014

NOTE: "FAIR" INDICATES FEW OR NO CLOUDS BELOW 12000 FEET WITH NO
SIGNIFICANT WEATHER AND/OR OBSTRUCTIONS TO VISIBILITY.

* THESE STATIONS ARE NOT UNDER NWS QUALITY CONTROL. THEY DO NOT
   REPORT WEATHER SUCH AS PRECIPITATION OR FOG.

MTZ001>007-043-191100-
WEST OF THE DIVIDE
CITY           SKY/WX    TMP DP  RH WIND       PRES   REMARKS
KALISPELL      FOG       30  30 100 CALM      29.96S VSB M1/4
MISSOULA       CLOUDY    30  28  92 CALM      30.00F
BUTTE          MOCLDY    14  12  92 CALM      29.99S
MULLAN PASS    CLOUDY    30  28  92 S8        29.89S WCI  22
* ANACONDA     PTCLDY    27  19  72 SW5        N/A   WCI  21
* ESSEX        N/A       30  29  96 N/A        N/A
* LINCOLN      N/A       31  28  89 SW3G8      N/A
* LOOKOUT PASS N/A       32  32 100 S2         N/A
* POLSON       N/A       33  32  96 N/A        N/A
* RONAN APT    MOCLDY    32  30  92 N/A        N/A
* SEELEY LAKE  N/A       27  26  96 N/A        N/A
* THOMP F APT  CLOUDY    25  23  92 N/A        N/A
$$

MTZ008-052>055-191100-
SOUTHWEST MONTANA
CITY           SKY/WX    TMP DP  RH WIND       PRES   REMARKS
BOZEMAN        PTCLDY    28  21  75 NE8       30.00S WCI  20
DILLON         CLOUDY    27  19  72 S6        30.01R WCI  20
* W YELLOWSTON PTCLDY    25  23  92 SW3G9      N/A
* THREE FORKS  PTCLDY    27  27 100 N/A        N/A
* BOULDER HILL N/A       28  17  63 SW11       N/A   WCI  18
* MONIDA PASS  N/A       23  23 100 SE16G22    N/A   WCI  10
* RAYNOLDS PAS N/A       26   6  42 S11        N/A   WCI  16
* WHITEHALL    N/A       30  20  66 SW7G17     N/A   WCI  23
* WISE RIVER   N/A       23  20  88 SE3        N/A
$$

MTZ009>010-012-014-046-048-049-054-191100-
EAST SLOPES AND CENTRAL MONTANA
CITY           SKY/WX    TMP DP  RH WIND       PRES   REMARKS
CUT BANK       PTCLDY    27  19  72 W7        29.85S WCI  19
GREAT FALLS    CLEAR     30  25  82 SW12      29.89R WCI  20
HELENA         CLOUDY    25  21  85 CALM      29.97S
* DEARBORN     N/A       36  24  62 S6G12      N/A   WCI  31
* EAST GLACIER N/A       35  25  67 W26G35     N/A   WCI  22
* MONARCH      N/A       31  16  54 SW11G21    N/A   WCI  22
* PENDROY      N/A       26  17  69 W1         N/A
* SWEET GRASS  N/A       26  22  85 S9         N/A   WCI  17
$$

MTZ011-013-016-021-035-040-045-047-050-051-191100-
NORTH CENTRAL MONTANA
CITY           SKY/WX    TMP DP  RH WIND       PRES   REMARKS
HAVRE          CLEAR     30  25  82 SW10      29.89S WCI  21
LEWISTOWN      CLEAR     30  21  69 SW14      29.90F WCI  19
* N BAR RANCH  PTCLDY    28  19  69 NW5       29.92S WCI  22
* CHESTER      N/A       17  15  92 NE1        N/A
* DENTON       N/A       28  22  78 S9         N/A   WCI  19
* JUDITH GAP   N/A       27  18  69 S8         N/A   WCI  19
* LOMA         N/A       27  24  88 N/A        N/A
$$

MTZ017>020-022>027-061-062-191100-
NORTHEAST MONTANA
CITY           SKY/WX    TMP DP  RH WIND       PRES   REMARKS
GLASGOW        PTCLDY    18  16  92 S3        29.91S
GLENDIVE       MOCLDY    28  25  89 S6        29.93S WCI  21
JORDAN         CLEAR     25  21  85 NW3       29.92S
SIDNEY         CLOUDY    21  19  92 CALM      29.95S
WOLF POINT     MOCLDY    21  18  88 CALM      29.92F
* BEAVER HILL  N/A       32  25  75 SW17       N/A   WCI  21
* CIRCLE       N/A       30  27  89 N/A        N/A
* LINDSAY DVD  N/A       33  27  79 W15        N/A   WCI  23
* NAVAJO       N/A       23  21  92 W2         N/A
* SACO         N/A       16  14  92 N/A        N/A
$$

MTZ028>042-056>058-191100-
SOUTHCENTRAL AND SOUTHEAST MONTANA
CITY           SKY/WX    TMP DP  RH WIND       PRES   REMARKS
BAKER          PTCLDY    28  21  75 W14       29.93S WCI  17
BILLINGS       MOCLDY    32  19  59 SW18      29.96R WCI  21
LIVINGSTON     MOCLDY    37  19  48 W28G36    29.95S WCI  25
MILES CITY     PTCLDY    25  19  78 SW7       29.95S WCI  17
* LAUREL APT   MOCLDY    30  12  47 S9         N/A   WCI  22
* ROUNDUP APT  PTCLDY    30  19  64 S5         N/A   WCI  25
* HYSHAM       N/A       31  17  56 W6         N/A   WCI  25
* LAME DEER    N/A       33  16  50 W5         N/A   WCI  28
* REED POINT   N/A       22  19  88 N/A        N/A
* ROSCOE HILL  N/A       34   6  31 SW5G14     N/A   WCI  29
$$

REGIONAL REPORTS...DAKOTAS
CITY           SKY/WX    TMP DP  RH WIND       PRES   REMARKS
WILLISTON      FOG       25  21  85 CALM      29.92S VSB M1/4
DICKINSON      CLOUDY    30  25  82 W8        29.89S WCI  22
BEACH          PTCLDY    32  27  82 W12       29.92S WCI  23
CROSBY         FOG       25  25 100 W3        29.92F VSB 3
WATFORD CITY   FAIR      18  16  92 CALM      29.91R
BISMARCK       MOCLDY    19  16  88 E5        29.98S WCI  12
GRAND FORKS    CLOUDY    21  18  88 S12       30.10F WCI   9
FARGO          FOG       23  19  85 SE14      30.12F WCI  10
BUFFALO SD     PTCLDY    28  21  75 W12       29.88S WCI  18
RAPID CITY     PTCLDY    28  18  66 NW7       29.98F WCI  21
$$

REGIONAL REPORTS...WYOMING/IDAHO/WASHINGTON
CITY           SKY/WX    TMP DP  RH WIND       PRES   REMARKS
GILLETTE       PTCLDY    19  10  68 S6        29.98S WCI  11
SHERIDAN       PTCLDY    19  10  68 CALM      29.97R
CODY           PTCLDY    36  19  50 NW7G16    29.99S WCI  30
YELLOWSTONE LA PTCLDY    23  19  85 CALM      30.07R
SALMON         CLOUDY    27  23  85 CALM      30.07S
MULLAN PASS    CLOUDY    30  28  92 S8        29.89S WCI  22
SAND POINT     LGT RAIN  36  36 100 N5        29.94S WCI  32
SPOKANE        LGT RAIN  39  36  89 SE9       29.89F WCI  33
$$

REGIONAL REPORTS...SASKATCHEWAN
CITY           SKY/WX    TMP DP  RH WIND       PRES   REMARKS
SWIFT CURRENT  FAIR      14  12  92 SW12      29.85S

$$




USA.gov is the U.S. government's official web portal to all federal, state and local government web resources and services.